Time,TemperatureF,DewpointF,PressureIn,WindDirection,WindDirectionDegrees,WindSpeedMPH,WindSpeedGustMPH,Humidity,HourlyPrecipIn,Conditions,Clouds,dailyrainin,SolarRadiationWatts/m^2,SoftwareType,DateUTC
2013-02-06 00:03:00,47.0,34.0,30.16,NW,309,0.0,-999.0,61,-99.99,,,0.00,0,weatherlink.com 1.10,2013-02-06 06:03:00,
2013-02-06 00:19:00,46.5,34.0,30.16,NW,309,0.0,-999.0,62,-99.99,,,0.00,0,weatherlink.com 1.10,2013-02-06 06:19:00,
2013-02-06 00:34:00,46.3,34.0,30.17,NW,309,0.0,-999.0,62,-99.99,,,0.00,0,weatherlink.com 1.10,2013-02-06 06:34:00,
2013-02-06 00:49:00,46.5,33.0,30.17,NW,309,0.0,-999.0,60,-99.99,,,0.00,0,weatherlink.com 1.10,2013-02-06 06:49:00,
2013-02-06 01:04:00,46.8,33.0,30.18,NW,309,0.0,-999.0,60,-99.99,,,0.00,0,weatherlink.com 1.10,2013-02-06 07:04:00,
2013-02-06 01:19:00,46.2,33.0,30.18,NW,309,0.0,-999.0,61,-99.99,,,0.00,0,weatherlink.com 1.10,2013-02-06 07:19:00,
2013-02-06 01:34:00,45.5,33.0,30.18,NW,309,0.0,-999.0,63,-99.99,,,0.00,0,weatherlink.com 1.10,2013-02-06 07:34:00,
2013-02-06 01:49:00,44.7,34.0,30.18,NW,309,0.0,-999.0,66,-99.99,,,0.00,0,weatherlink.com 1.10,2013-02-06 07:49:00,
2013-02-06 02:04:00,43.4,34.0,30.18,NW,309,0.0,-999.0,69,-99.99,,,0.00,0,weatherlink.com 1.10,2013-02-06 08:04:00,
2013-02-06 02:19:00,41.1,34.0,30.18,NW,309,2.0,-999.0,76,-99.99,,,0.00,0,weatherlink.com 1.10,2013-02-06 08:19:00,
2013-02-06 02:34:00,41.4,34.0,30.18,NW,309,0.0,-999.0,76,-99.99,,,0.00,0,weatherlink.com 1.10,2013-02-06 08:34:00,
2013-02-06 02:49:00,41.2,34.0,30.19,NW,309,0.0,-999.0,76,-99.99,,,0.00,0,weatherlink.com 1.10,2013-02-06 08:49:00,
2013-02-06 03:04:00,41.4,33.0,30.19,NW,309,0.0,-999.0,73,-99.99,,,0.00,0,weatherlink.com 1.10,2013-02-06 09:04:00,
2013-02-06 03:19:00,41.4,33.0,30.19,NW,309,0.0,-999.0,72,-99.99,,,0.00,0,weatherlink.com 1.10,2013-02-06 09:19:00,
2013-02-06 03:34:00,40.7,34.0,30.20,NW,309,0.0,-999.0,76,-99.99,,,0.00,0,weatherlink.com 1.10,2013-02-06 09:34:00,
2013-02-06 03:49:00,39.7,34.0,30.19,NW,309,0.0,-999.0,79,-99.99,,,0.00,0,weatherlink.com 1.10,2013-02-06 09:49:00,
2013-02-06 04:04:00,40.0,33.0,30.19,NW,309,0.0,-999.0,75,-99.99,,,0.00,0,weatherlink.com 1.10,2013-02-06 10:04:00,
2013-02-06 04:19:00,39.5,33.0,30.20,NW,309,0.0,-999.0,77,-99.99,,,0.00,0,weatherlink.com 1.10,2013-02-06 10:19:00,
2013-02-06 04:34:00,39.2,33.0,30.20,NW,309,0.0,-999.0,77,-99.99,,,0.00,0,weatherlink.com 1.10,2013-02-06 10:34:00,
2013-02-06 04:49:00,36.2,32.0,30.20,NW,309,0.0,-999.0,84,-99.99,,,0.00,0,weatherlink.com 1.10,2013-02-06 10:49:00,
2013-02-06 05:04:00,36.0,33.0,30.20,NW,309,0.0,-999.0,87,-99.99,,,0.00,0,weatherlink.com 1.10,2013-02-06 11:04:00,
2013-02-06 05:19:00,35.9,32.0,30.20,NW,309,0.0,-999.0,87,-99.99,,,0.00,0,weatherlink.com 1.10,2013-02-06 11:19:00,
2013-02-06 05:34:00,35.7,33.0,30.21,NW,309,0.0,-999.0,88,-99.99,,,0.00,0,weatherlink.com 1.10,2013-02-06 11:34:00,
2013-02-06 05:49:00,35.2,32.0,30.21,NW,309,0.0,-999.0,89,-99.99,,,0.00,0,weatherlink.com 1.10,2013-02-06 11:49:00,
2013-02-06 06:04:00,35.5,33.0,30.22,NW,309,0.0,-999.0,89,-99.99,,,0.00,0,weatherlink.com 1.10,2013-02-06 12:04:00,
2013-02-06 06:19:00,35.4,33.0,30.22,NW,309,0.0,-999.0,89,-99.99,,,0.00,0,weatherlink.com 1.10,2013-02-06 12:19:00,
2013-02-06 06:34:00,35.2,32.0,30.23,NW,309,0.0,-999.0,89,-99.99,,,0.00,0,weatherlink.com 1.10,2013-02-06 12:34:00,
2013-02-06 06:49:00,34.6,32.0,30.24,NW,309,0.0,-999.0,90,-99.99,,,0.00,0,weatherlink.com 1.10,2013-02-06 12:49:00,
2013-02-06 07:04:00,35.3,33.0,30.25,NW,309,0.0,-999.0,90,-99.99,,,0.00,0,weatherlink.com 1.10,2013-02-06 13:04:00,
2013-02-06 07:19:00,36.0,33.0,30.25,NW,309,0.0,-999.0,88,-99.99,,,0.00,11,weatherlink.com 1.10,2013-02-06 13:19:00,
2013-02-06 07:34:00,35.6,32.0,30.26,NW,309,0.0,-999.0,87,-99.99,,,0.00,18,weatherlink.com 1.10,2013-02-06 13:34:00,
2013-02-06 07:49:00,36.1,33.0,30.27,NW,309,0.0,-999.0,88,-99.99,,,0.00,44,weatherlink.com 1.10,2013-02-06 13:49:00,
2013-02-06 08:04:00,38.5,34.0,30.28,NW,309,0.0,-999.0,84,-99.99,,,0.00,67,weatherlink.com 1.10,2013-02-06 14:04:00,
2013-02-06 08:19:00,39.7,34.0,30.29,NW,309,5.0,-999.0,79,-99.99,,,0.00,33,weatherlink.com 1.10,2013-02-06 14:19:00,
2013-02-06 08:34:00,39.9,34.0,30.28,WNW,302,0.0,-999.0,78,-99.99,,,0.00,54,weatherlink.com 1.10,2013-02-06 14:34:00,
2013-02-06 08:49:00,40.4,35.0,30.28,WNW,302,2.0,-999.0,80,-99.99,,,0.00,105,weatherlink.com 1.10,2013-02-06 14:49:00,
2013-02-06 09:20:00,43.1,35.0,30.27,NW,304,5.0,-999.0,74,-99.99,,,0.00,329,weatherlink.com 1.10,2013-02-06 15:20:00,
2013-02-06 09:34:00,43.6,35.0,30.25,WNW,291,1.0,-999.0,71,-99.99,,,0.00,374,weatherlink.com 1.10,2013-02-06 15:34:00,
2013-02-06 09:49:00,44.6,35.0,30.26,South,177,8.0,-999.0,68,-99.99,,,0.00,411,weatherlink.com 1.10,2013-02-06 15:49:00,
2013-02-06 10:04:00,46.0,35.0,30.26,SE,140,6.0,-999.0,66,-99.99,,,0.00,446,weatherlink.com 1.10,2013-02-06 16:04:00,
2013-02-06 10:19:00,47.1,35.0,30.25,SE,136,0.0,-999.0,63,-99.99,,,0.00,482,weatherlink.com 1.10,2013-02-06 16:19:00,
2013-02-06 10:35:00,47.9,35.0,30.25,SE,127,5.0,-999.0,62,-99.99,,,0.00,513,weatherlink.com 1.10,2013-02-06 16:35:00,
2013-02-06 10:50:00,48.9,35.0,30.25,SE,126,6.0,-999.0,59,-99.99,,,0.00,540,weatherlink.com 1.10,2013-02-06 16:50:00,
2013-02-06 11:05:00,50.2,35.0,30.25,ESE,123,2.0,-999.0,57,-99.99,,,0.00,561,weatherlink.com 1.10,2013-02-06 17:05:00,
2013-02-06 11:20:00,51.6,35.0,30.25,SE,146,4.0,-999.0,54,-99.99,,,0.00,591,weatherlink.com 1.10,2013-02-06 17:20:00,
2013-02-06 11:35:00,52.2,36.0,30.25,SSE,150,0.0,-999.0,54,-99.99,,,0.00,601,weatherlink.com 1.10,2013-02-06 17:35:00,
2013-02-06 11:50:00,52.6,35.0,30.23,SSE,155,4.0,-999.0,52,-99.99,,,0.00,624,weatherlink.com 1.10,2013-02-06 17:50:00,
2013-02-06 12:05:00,52.9,35.0,30.23,SE,140,0.0,-999.0,52,-99.99,,,0.00,643,weatherlink.com 1.10,2013-02-06 18:05:00,
2013-02-06 12:20:00,54.3,36.0,30.22,SE,142,0.0,-999.0,50,-99.99,,,0.00,631,weatherlink.com 1.10,2013-02-06 18:20:00,
2013-02-06 12:35:00,55.2,36.0,30.20,SE,142,0.0,-999.0,48,-99.99,,,0.00,631,weatherlink.com 1.10,2013-02-06 18:35:00,
2013-02-06 12:50:00,55.1,36.0,30.19,SE,141,8.0,-999.0,49,-99.99,,,0.00,214,weatherlink.com 1.10,2013-02-06 18:50:00,
2013-02-06 13:05:00,54.7,36.0,30.19,SE,136,6.0,-999.0,49,-99.99,,,0.00,192,weatherlink.com 1.10,2013-02-06 19:05:00,
2013-02-06 13:20:00,54.4,35.0,30.17,SSE,154,2.0,-999.0,49,-99.99,,,0.00,257,weatherlink.com 1.10,2013-02-06 19:20:00,
2013-02-06 13:35:00,54.6,36.0,30.17,SSE,150,0.0,-999.0,50,-99.99,,,0.00,229,weatherlink.com 1.10,2013-02-06 19:35:00,
2013-02-06 13:50:00,54.6,36.0,30.17,SSE,147,1.0,-999.0,49,-99.99,,,0.00,374,weatherlink.com 1.10,2013-02-06 19:50:00,
2013-02-06 14:05:00,55.4,37.0,30.16,SSE,160,9.0,-999.0,50,-99.99,,,0.00,589,weatherlink.com 1.10,2013-02-06 20:05:00,
2013-02-06 14:20:00,55.8,36.0,30.16,SSE,150,0.0,-999.0,48,-99.99,,,0.00,251,weatherlink.com 1.10,2013-02-06 20:20:00,
2013-02-06 14:35:00,55.5,35.0,30.15,SE,142,5.0,-999.0,47,-99.99,,,0.00,262,weatherlink.com 1.10,2013-02-06 20:35:00,
2013-02-06 14:50:00,56.5,37.0,30.16,SE,132,6.0,-999.0,48,-99.99,,,0.00,327,weatherlink.com 1.10,2013-02-06 20:50:00,
2013-02-06 15:05:00,56.0,36.0,30.14,SE,136,4.0,-999.0,48,-99.99,,,0.00,230,weatherlink.com 1.10,2013-02-06 21:05:00,
2013-02-06 15:21:00,55.5,36.0,30.14,SE,139,9.0,-999.0,49,-99.99,,,0.00,176,weatherlink.com 1.10,2013-02-06 21:21:00,
2013-02-06 15:36:00,55.0,36.0,30.14,SE,138,0.0,-999.0,50,-99.99,,,0.00,218,weatherlink.com 1.10,2013-02-06 21:36:00,
2013-02-06 15:51:00,55.1,37.0,30.14,SE,140,7.0,-999.0,51,-99.99,,,0.00,139,weatherlink.com 1.10,2013-02-06 21:51:00,
2013-02-06 16:05:00,54.7,37.0,30.14,SE,146,0.0,-999.0,52,-99.99,,,0.00,107,weatherlink.com 1.10,2013-02-06 22:05:00,
2013-02-06 16:20:00,54.4,37.0,30.14,SE,141,1.0,-999.0,53,-99.99,,,0.00,123,weatherlink.com 1.10,2013-02-06 22:20:00,
2013-02-06 16:35:00,54.6,38.0,30.12,SE,140,5.0,-999.0,53,-99.99,,,0.00,190,weatherlink.com 1.10,2013-02-06 22:35:00,
2013-02-06 16:50:00,54.8,38.0,30.12,SE,140,0.0,-999.0,53,-99.99,,,0.00,58,weatherlink.com 1.10,2013-02-06 22:50:00,
2013-02-06 17:06:00,53.8,38.0,30.12,SE,141,8.0,-999.0,55,-99.99,,,0.00,33,weatherlink.com 1.10,2013-02-06 23:06:00,
2013-02-06 17:20:00,52.8,37.0,30.12,SE,136,4.0,-999.0,56,-99.99,,,0.00,19,weatherlink.com 1.10,2013-02-06 23:20:00,
2013-02-06 17:36:00,52.1,38.0,30.12,SE,136,0.0,-999.0,58,-99.99,,,0.00,0,weatherlink.com 1.10,2013-02-06 23:36:00,
2013-02-06 17:50:00,51.2,38.0,30.12,SE,136,5.0,-999.0,60,-99.99,,,0.00,0,weatherlink.com 1.10,2013-02-06 23:50:00,
2013-02-06 18:06:00,50.7,37.0,30.12,SE,135,4.0,-999.0,60,-99.99,,,0.00,0,weatherlink.com 1.10,2013-02-07 00:06:00,
2013-02-06 18:21:00,50.4,37.0,30.13,SE,136,5.0,-999.0,61,-99.99,,,0.00,0,weatherlink.com 1.10,2013-02-07 00:21:00,
2013-02-06 18:36:00,49.8,37.0,30.14,SE,136,5.0,-999.0,62,-99.99,,,0.00,0,weatherlink.com 1.10,2013-02-07 00:36:00,
2013-02-06 18:51:00,49.4,38.0,30.14,SE,146,0.0,-999.0,64,-99.99,,,0.00,0,weatherlink.com 1.10,2013-02-07 00:51:00,
2013-02-06 19:06:00,49.1,38.0,30.14,SE,144,10.0,-999.0,65,-99.99,,,0.00,0,weatherlink.com 1.10,2013-02-07 01:06:00,
2013-02-06 19:21:00,48.7,38.0,30.14,SE,140,1.0,-999.0,66,-99.99,,,0.00,0,weatherlink.com 1.10,2013-02-07 01:21:00,
2013-02-06 19:36:00,48.4,38.0,30.14,SE,140,0.0,-999.0,67,-99.99,,,0.00,0,weatherlink.com 1.10,2013-02-07 01:36:00,
2013-02-06 19:54:00,48.1,38.0,30.13,SE,140,1.0,-999.0,69,-99.99,,,0.00,0,weatherlink.com 1.10,2013-02-07 01:54:00,
2013-02-06 20:07:00,47.8,38.0,30.13,SE,141,2.0,-999.0,69,-99.99,,,0.00,0,weatherlink.com 1.10,2013-02-07 02:07:00,
2013-02-06 20:21:00,47.7,38.0,30.13,SE,139,5.0,-999.0,70,-99.99,,,0.00,0,weatherlink.com 1.10,2013-02-07 02:21:00,
2013-02-06 20:36:00,47.7,38.0,30.13,SE,139,6.0,-999.0,70,-99.99,,,0.00,0,weatherlink.com 1.10,2013-02-07 02:36:00,
2013-02-06 20:51:00,47.5,39.0,30.13,SE,139,0.0,-999.0,71,-99.99,,,0.00,0,weatherlink.com 1.10,2013-02-07 02:51:00,
2013-02-06 21:21:00,47.2,39.0,30.13,SE,139,4.0,-999.0,73,-99.99,,,0.00,0,weatherlink.com 1.10,2013-02-07 03:21:00,
2013-02-06 21:36:00,46.9,39.0,30.12,SE,139,2.0,-999.0,73,-99.99,,,0.00,0,weatherlink.com 1.10,2013-02-07 03:36:00,
2013-02-06 21:51:00,46.7,39.0,30.13,SE,139,0.0,-999.0,74,-99.99,,,0.00,0,weatherlink.com 1.10,2013-02-07 03:51:00,
2013-02-06 22:06:00,46.7,39.0,30.12,SE,139,0.0,-999.0,74,-99.99,,,0.00,0,weatherlink.com 1.10,2013-02-07 04:06:00,
2013-02-06 22:21:00,46.6,39.0,30.12,SE,139,0.0,-999.0,74,-99.99,,,0.00,0,weatherlink.com 1.10,2013-02-07 04:21:00,
2013-02-06 22:36:00,46.7,39.0,30.13,SE,139,0.0,-999.0,75,-99.99,,,0.00,0,weatherlink.com 1.10,2013-02-07 04:36:00,
2013-02-06 22:51:00,46.9,39.0,30.12,SE,139,0.0,-999.0,75,-99.99,,,0.00,0,weatherlink.com 1.10,2013-02-07 04:51:00,
2013-02-06 23:06:00,46.5,39.0,30.11,SE,139,0.0,-999.0,75,-99.99,,,0.00,0,weatherlink.com 1.10,2013-02-07 05:06:00,
2013-02-06 23:21:00,46.2,39.0,30.11,SE,139,2.0,-999.0,76,-99.99,,,0.00,0,weatherlink.com 1.10,2013-02-07 05:21:00,
2013-02-06 23:36:00,46.0,39.0,30.10,SE,139,4.0,-999.0,77,-99.99,,,0.00,0,weatherlink.com 1.10,2013-02-07 05:36:00,
2013-02-06 23:51:00,45.9,39.0,30.10,SE,139,0.0,-999.0,77,-99.99,,,0.00,0,weatherlink.com 1.10,2013-02-07 05:51:00,